Showing default

CENTISPACE-1 S13, 62582

Orbit data source: Space-Track

CENTISPACE-1 S13, 62582 is a payload satellite owned by Centispace (CN) in LEO that was launched on Mon, 13 Jan 2025 UTC via a JIELONG-3 launch vehicle from the Yellow Sea Launch Area, China (YSLA). Payload-class satellites include a variety of spacecraft equipped with specific instruments for various scientific and technological missions. These include communications satellites like Starlink; space stations such as the ISS; scientific satellites like the Hubble; Earth observation satellites from companies like Planet Labs, Umbra, and HawkEye 360; GPS; miniature CubeSats for education and research; and military/defense satellites.

Loading next visibility...
Identifier
62582, 2025-007H
Orbit
LEO
Last TLE update
7 hours ago
Origin
Manufacturer
DFH Shenzhen
Mission
Operational Commercial Nav/Com
Bus & Motor
WK01, Unknown motor
Mass
140 kg wet, 140 kg dry
Launch date (UTC)
2025-01-13 (6 months ago)
Launch vehicle
JIELONG-3
Launch site
Yellow Sea Launch Area, China (YSLA)
Object type
Payload
Rocket body
Debris
Shape & HBR
Box + 2 Pan, 2 m
Radar Cross Section
0.833 m², Medium (>0.1 m² and < 1m²)

Expand to show TLE details & history

TLE from 7 hours ago
0 CENTISPACE-1 S13
1 62582U 25007H   25184.26401176  .00000422  00000-0  92332-4 0  9995
2 62582  54.9817 148.9983 0011099 319.7892 121.4078 14.75368482 25266
Epoch: 2025-07-03T06:20Z
TLE epoch observation values (Epoch: 2025-07-03T06:20:10.616Z)
Latitude
54.1981°
Longitude
-152.51792°
Altitude
655.042 km
Speed
7.534 km/s
True Right ascension
14h 56m 14s
True Declination
54° 01' 57"
Sunlit
Object was in daylight at epoch
Visualization orbit readout
Latitude
0.31879°
Longitude
-48.98352°
Altitude
651.056 km
Speed
7.53 km/s
Apparent Right ascension
18h 53m 52s
Apparent Declination
-37° 28' 26"
Sunlit
Object is in full shadow
Visualization observer readout
Local Sidereal Time
01:03:53
Azimuth
240.731° WSW
Elevation
-24.645°
Doppler factor
1
Orbital elements
Apogee altitude
651.742 km
Perigee altitude
636.154 km
Semi-major axis
7,022.085 km
Eccentricity
0.00111
Inclination
54.9817°
RAAN
148.9983°
Arg. of periapsis
319.7892°
True anomaly
Unknown
Mean anomaly
121.4078°
Eccentric anomaly
Unknown
Mean motion
3.68845 °/min
Orbital period
97.6 mins
BSTAR
0.000092332
Loading maneuver chart data...
Loading SW <> Apogee altitude chart data...
Loading historical data...
Loading historical data...
Loading historical data...
Loading historical data...
Loading historical data...
Loading historical data...
Loading historical data...

CENTISPACE-1 S13 Visibility forecast

Observer location: undefined°, undefined°

Span
Click to sort rows by Start time (UTC) header in descending order
Start Az.
Max El. time (UTC)
Max El. Az.
Max El.
End time (UTC)
End Az.
8 mins2025-07-04 00:01:05.096Z215.837° SW2025-07-04 00:05:05.096Z101.401° ESE42.798°2025-07-04 00:09:05.096Z51.264° ENE
6 mins2025-07-04 01:44:05.096Z288.722° WNW2025-07-04 01:47:05.096Z342.179° N22.676°2025-07-04 01:50:05.096Z25.542° NE
4 mins2025-07-04 05:11:05.096Z352.708° N2025-07-04 05:13:05.096Z23.079° NE16.214°2025-07-04 05:15:05.096Z51.227° ENE
7 mins2025-07-04 06:52:05.096Z326.755° NNW2025-07-04 06:55:05.096Z34.361° NE38.918°2025-07-04 06:59:05.096Z114.025° SE
6 mins2025-07-04 08:34:05.096Z273.927° WNW2025-07-04 08:36:05.096Z240.604° WSW21.981°2025-07-04 08:40:05.096Z181.78° SSW
|